[[{"header":{"parameterUnit":"m.s-1","parameterCategory":1,"la1":30.2991,"la2":30.254,"lo1":-89.0895,"lo2":-89.0444,"dy":0.0017,"dx":0.0017,"nx":28,"ny":28,"refTime":"2025-08-27T03:00:00:Z","depth":0,"parameterNumber":2,"parameterNumberName":"U-component_of_WINDS"},"data":[0,0,0,0,0,0,0,0,0,0,0,0,0,0,0,0,0,0,0,0,0,0,0,0,0,0,0,0,0,0,0,0,0,0,0,0,0,0,0,0,0,0,0,0,0,0,0,0,0,0,0,0,0,0,0,0,0,0,0.2702,0.2701,0,0.2629,0.2629,0.2628,0.26,0.2601,0.2601,0.2601,0.2523,0.2521,0.2519,0,0,0,0,0,0,0,0,0,0,0,0,0,0.2815,0.2813,0.2702,0.2701,0.27,0.263,0.2629,0.2628,0.26,0.2601,0.2601,0.2601,0.2524,0.2521,0.2518,0,0,0,0,0,0,0,0,0,0,0,0,0,0.2756,0.2812,0.2702,0.2678,0.2676,0.263,0.2629,0.2627,0.26,0.2601,0.2601,0.2601,0.2525,0.2521,0.2518,0.249,0,0,0.2508,0.2506,0,0,0,0,0,0,0,0,0.276,0.2752,0.2683,0.268,0.2677,0.2624,0.264,0.2581,0.26,0.2629,0.2601,0.2601,0.2556,0.255,0.2536,0.2486,0.2483,0.2507,0.2505,0.2504,0.2503,0,0,0,0,0,0,0,0.2764,0.2755,0.2673,0.2682,0.2678,0.267,0.2662,0.2629,0.2591,0.2626,0.2624,0.2616,0.2555,0.2539,0.2534,0.2482,0.2507,0.2504,0.2502,0.2501,0.2406,0.2405,0,0,0,0,0,0,0.2772,0.2759,0.2676,0.2671,0.272,0.2668,0.2659,0.2641,0.2592,0.2585,0.2616,0.2615,0.2545,0.2538,0.2531,0.2495,0.2504,0.25,0.2499,0.2406,0.2406,0.2405,0,0,0,0,0,0,0.2775,0.2765,0.2679,0.2714,0.2703,0.2666,0.2645,0.2639,0.2624,0.2584,0.2577,0.2607,0.2545,0.2536,0.2501,0.2492,0.2499,0.2496,0.2407,0.2406,0.2405,0.2422,0,0,0,0,0,0,0.2778,0.2766,0.2756,0.2714,0.2701,0.265,0.2645,0.2637,0.2618,0.2616,0.2574,0.2567,0.2544,0.2506,0.2497,0.2487,0.2493,0.2407,0.2406,0.2405,0.2422,0.2422,0.2422,0,0,0,0,0,0.2782,0.2762,0.2755,0.2745,0.2687,0.265,0.2642,0.2618,0.2618,0.2606,0.2581,0.2568,0.2494,0.2503,0.2492,0.2481,0.2408,0.2407,0.2406,0.2422,0.2422,0.2422,0,0,0,0,0,0,0.2802,0.2757,0.2748,0.2714,0.2686,0.2645,0.263,0.2618,0.2589,0.2588,0.2558,0.2549,0.2516,0.2495,0.2505,0.2451,0.245,0.2447,0.2466,0.2466,0.2466,0.2471,0.249,0,0,0,0,0,0.2803,0.2777,0.2738,0.2712,0.2699,0.2667,0.265,0.2634,0.2603,0.2591,0.2562,0.2532,0.2502,0.2483,0.2453,0.2419,0.2409,0.2407,0.2407,0.2407,0.2404,0.2385,0.2383,0.2402,0.2402,0.2402,0,0,0.2803,0.2775,0.2761,0.2716,0.2692,0.2665,0.2657,0.2629,0.2609,0.2586,0.2551,0.253,0.2494,0.246,0.2443,0.2441,0.2397,0.2405,0.2406,0.2403,0.2383,0.2382,0.238,0.2401,0.2401,0.2401,0,0,0.2791,0.2767,0.2743,0.272,0.2685,0.2664,0.2659,0.262,0.2605,0.257,0.2552,0.2527,0.2476,0.2452,0.2432,0.2412,0.2399,0.2403,0.2402,0.2384,0.2382,0.2381,0.2373,0.2371,0.2401,0.2401,0.2401,0,0.2795,0.2756,0.2732,0.2705,0.2686,0.2666,0.2641,0.2619,0.2576,0.2562,0.2561,0.2497,0.2472,0.2431,0.2427,0.2412,0.2404,0.2407,0.2385,0.2383,0.2381,0.2373,0.2371,0.2402,0.2402,0.2402,0.2402,0,0.2763,0.2736,0.272,0.268,0.2659,0.2634,0.2605,0.2587,0.2573,0.2552,0.2517,0.2486,0.245,0.2439,0.2425,0.2397,0.2397,0.2391,0.2389,0.2381,0.2373,0.237,0.2403,0.2402,0.2402,0.2402,0,0,0.2759,0.2708,0.2702,0.2684,0.2645,0.2623,0.2596,0.2562,0.2546,0.2518,0.2494,0.2452,0.2447,0.2425,0.2408,0.2392,0.2377,0.2387,0.2386,0.2386,0.2344,0.2348,0.2345,0.2369,0.2368,0.2368,0.2347,0,0.2741,0.2693,0.2672,0.2634,0.2608,0.2589,0.2566,0.2539,0.2519,0.2494,0.2471,0.2442,0.2437,0.2424,0.2408,0.2383,0.2368,0.2384,0.2346,0.2345,0.2354,0.2341,0.2345,0.2327,0.2344,0.2343,0.2343,0,0.2712,0.2685,0.2645,0.2609,0.2597,0.2577,0.2544,0.2521,0.249,0.2476,0.2453,0.2437,0.2408,0.2409,0.2368,0.2379,0.2362,0.2348,0.2346,0.2341,0.2343,0.2335,0.232,0.2317,0.2338,0.2338,0.2339,0,0.2713,0.2666,0.2636,0.2621,0.2579,0.2565,0.2546,0.2516,0.2497,0.2468,0.2456,0.2423,0.2406,0.2381,0.2356,0.2359,0.2317,0.2316,0.2305,0.2305,0.2295,0.2296,0.2278,0.2286,0.2287,0.2287,0.2287,0,0.2694,0.267,0.2636,0.2617,0.259,0.2565,0.2538,0.2518,0.2492,0.2468,0.245,0.2428,0.2398,0.2372,0.2352,0.2321,0.2313,0.2301,0.2296,0.2302,0.2304,0.229,0.229,0.2286,0.2286,0.2286,0.2286,0,0.269,0.2666,0.2632,0.2595,0.2585,0.2567,0.2535,0.2516,0.2496,0.2467,0.2458,0.2426,0.2395,0.2369,0.2327,0.2314,0.2282,0.2276,0.2293,0.229,0.2279,0.228,0.225,0.2245,0.2258,0.2258,0.2258,0,0.2679,0.266,0.2622,0.2606,0.2588,0.2562,0.2543,0.2518,0.2499,0.2463,0.2448,0.2416,0.2389,0.234,0.2313,0.2281,0.2274,0.2266,0.2269,0.2276,0.2273,0.2274,0.2272,0.2265,0.2265,0.2265,0.2265,0,0.2661,0.2651,0.2625,0.2595,0.2574,0.2548,0.2523,0.251,0.2481,0.246,0.2429,0.2408,0.2367,0.2335,0.2301,0.2281,0.2267,0.2265,0.226,0.2265,0.2275,0.2269,0.2291,0.2265,0.2265,0.2265,0.2265,0.2265,0.2652,0.2635,0.2606,0.2578,0.2557,0.2533,0.2514,0.2492,0.2466,0.2431,0.2418,0.2386,0.2356,0.2309,0.2289,0.2263,0.2261,0.2255,0.2253,0.2251,0.2252,0.2281,0.2257,0.2257,0.2257,0.2257,0.2257,0,0.2634,0.2615,0.2589,0.2555,0.2533,0.2524,0.2496,0.2477,0.245,0.2423,0.2398,0.2362,0.2331,0.2302,0.227,0.2255,0.2248,0.2247,0.2247,0.2242,0.2256,0.2263,0.2253,0.2253,0.2253,0.2253,0.2253,0.2253,0.2621,0.2592,0.2578,0.2537,0.2518,0.2487,0.2472,0.245,0.2429,0.239,0.2365,0.2347,0.2319,0.2285,0.2257,0.2249,0.2237,0.2238,0.2228,0.2241,0.2242,0.2242,0.2248,0.2236,0.2236,0.2217,0.2217,0.2217]},{"header":{"parameterUnit":"m.s-1","parameterCategory":1,"la1":30.2991,"la2":30.254,"lo1":-89.0895,"lo2":-89.0444,"dy":0.0017,"dx":0.0017,"nx":28,"ny":28,"refTime":"2025-08-27T03:00:00:Z","depth":0,"parameterNumber":3,"parameterNumberName":"V-component_of_WINDS"},"data":[0,0,0,0,0,0,0,0,0,0,0,0,0,0,0,0,0,0,0,0,0,0,0,0,0,0,0,0,0,0,0,0,0,0,0,0,0,0,0,0,0,0,0,0,0,0,0,0,0,0,0,0,0,0,0,0,0,0,-1.5229,-1.5231,0,-1.5346,-1.5347,-1.5348,-1.5402,-1.5402,-1.5401,-1.5401,-1.552,-1.5523,-1.5527,0,0,0,0,0,0,0,0,0,0,0,0,0,-1.5053,-1.5056,-1.5229,-1.5231,-1.5232,-1.5346,-1.5347,-1.5349,-1.5402,-1.5402,-1.5401,-1.5401,-1.5519,-1.5523,-1.5527,0,0,0,0,0,0,0,0,0,0,0,0,0,-1.5145,-1.5057,-1.5229,-1.5272,-1.5277,-1.5345,-1.5347,-1.5349,-1.5402,-1.5402,-1.5401,-1.5401,-1.5518,-1.5523,-1.5528,-1.5561,0,0,-1.5543,-1.5545,0,0,0,0,0,0,0,0,-1.514,-1.5152,-1.5264,-1.5269,-1.5275,-1.5359,-1.5329,-1.542,-1.5402,-1.5354,-1.5401,-1.5401,-1.5467,-1.5476,-1.5498,-1.5567,-1.5572,-1.5543,-1.5546,-1.5548,-1.5549,0,0,0,0,0,0,0,-1.5133,-1.5147,-1.5275,-1.5266,-1.5273,-1.5286,-1.5299,-1.5346,-1.541,-1.5359,-1.5363,-1.5376,-1.547,-1.5493,-1.5501,-1.5573,-1.5543,-1.5547,-1.555,-1.5552,-1.5676,-1.5676,0,0,0,0,0,0,-1.512,-1.5141,-1.5272,-1.5279,-1.5206,-1.5289,-1.5304,-1.5332,-1.541,-1.5421,-1.5376,-1.5378,-1.5485,-1.5495,-1.5506,-1.5551,-1.5548,-1.5553,-1.5555,-1.5676,-1.5676,-1.5677,0,0,0,0,0,0,-1.5116,-1.5131,-1.5267,-1.5211,-1.523,-1.5292,-1.5324,-1.5335,-1.5358,-1.5423,-1.5434,-1.5388,-1.5485,-1.5499,-1.5547,-1.5555,-1.5555,-1.5559,-1.5675,-1.5676,-1.5676,-1.564,0,0,0,0,0,0,-1.5111,-1.5129,-1.5143,-1.5211,-1.5232,-1.5306,-1.5325,-1.5337,-1.5367,-1.537,-1.5437,-1.5448,-1.5486,-1.5539,-1.5552,-1.5562,-1.5563,-1.5675,-1.5676,-1.5676,-1.5641,-1.5639,-1.5638,0,0,0,0,0,-1.5104,-1.5128,-1.5143,-1.5159,-1.525,-1.5307,-1.5319,-1.5362,-1.5367,-1.5381,-1.5423,-1.5446,-1.5552,-1.5544,-1.5558,-1.557,-1.5675,-1.5675,-1.5676,-1.5641,-1.5639,-1.5638,0,0,0,0,0,0,-1.5058,-1.5137,-1.5155,-1.5202,-1.5247,-1.5315,-1.5335,-1.5358,-1.5403,-1.5405,-1.5456,-1.5471,-1.5515,-1.5547,-1.5537,-1.5607,-1.5616,-1.5619,-1.5584,-1.5583,-1.5581,-1.5573,-1.5567,0,0,0,0,0,-1.5054,-1.5093,-1.516,-1.5194,-1.5216,-1.5271,-1.5297,-1.5327,-1.5376,-1.5395,-1.544,-1.5487,-1.5531,-1.5559,-1.5603,-1.5646,-1.5661,-1.5661,-1.5659,-1.5658,-1.5661,-1.5686,-1.5687,-1.5679,-1.5679,-1.5679,0,0,-1.5044,-1.5092,-1.5114,-1.5186,-1.5225,-1.5264,-1.5287,-1.5328,-1.5358,-1.5401,-1.545,-1.5484,-1.554,-1.5586,-1.5608,-1.5614,-1.5666,-1.5659,-1.5657,-1.5661,-1.5687,-1.5688,-1.5688,-1.568,-1.568,-1.568,0,0,-1.5047,-1.5088,-1.5121,-1.5159,-1.5217,-1.5254,-1.5262,-1.5327,-1.5352,-1.5401,-1.5435,-1.5471,-1.5546,-1.5584,-1.5613,-1.5631,-1.5655,-1.5644,-1.5637,-1.5661,-1.5662,-1.5663,-1.5669,-1.5671,-1.5647,-1.5646,-1.5646,0,-1.5028,-1.5089,-1.5135,-1.5174,-1.5205,-1.5246,-1.5281,-1.5315,-1.5385,-1.5405,-1.5411,-1.5506,-1.5546,-1.5602,-1.5606,-1.5628,-1.5639,-1.5637,-1.5658,-1.5659,-1.5661,-1.5668,-1.567,-1.5645,-1.5645,-1.5645,-1.5645,0,-1.5063,-1.5105,-1.5125,-1.5191,-1.5224,-1.526,-1.5312,-1.534,-1.5366,-1.5402,-1.5452,-1.5502,-1.5557,-1.5572,-1.5598,-1.5632,-1.5634,-1.5648,-1.5658,-1.5659,-1.5667,-1.567,-1.5642,-1.5643,-1.5643,-1.5644,0,0,-1.5041,-1.5132,-1.5139,-1.5169,-1.5237,-1.527,-1.5308,-1.5362,-1.5385,-1.5432,-1.5465,-1.5528,-1.5542,-1.5575,-1.5605,-1.5627,-1.5638,-1.5639,-1.5641,-1.5637,-1.5679,-1.5668,-1.567,-1.5654,-1.5655,-1.5656,-1.5674,0,-1.5054,-1.5124,-1.5166,-1.522,-1.5259,-1.5299,-1.5333,-1.5378,-1.5412,-1.5451,-1.5489,-1.5532,-1.5547,-1.5567,-1.559,-1.5632,-1.5647,-1.5631,-1.5686,-1.5688,-1.5671,-1.5674,-1.5663,-1.5678,-1.5677,-1.5678,-1.5678,0,-1.5078,-1.5124,-1.5181,-1.5244,-1.5263,-1.5292,-1.5345,-1.5381,-1.5433,-1.5457,-1.5494,-1.5525,-1.5567,-1.5573,-1.5632,-1.562,-1.5645,-1.5669,-1.5671,-1.5678,-1.5683,-1.5681,-1.5684,-1.5686,-1.5683,-1.5683,-1.5683,0,-1.5056,-1.5132,-1.5177,-1.5202,-1.5277,-1.5296,-1.5328,-1.538,-1.541,-1.5456,-1.5476,-1.5527,-1.5554,-1.5593,-1.5637,-1.5637,-1.5692,-1.5701,-1.5713,-1.5712,-1.5723,-1.5721,-1.5729,-1.5738,-1.5738,-1.5738,-1.5738,0,-1.5067,-1.51,-1.5168,-1.5195,-1.5234,-1.5282,-1.5319,-1.5355,-1.54,-1.5435,-1.5473,-1.5505,-1.5561,-1.56,-1.5634,-1.5678,-1.5691,-1.5711,-1.572,-1.5708,-1.5705,-1.5725,-1.5725,-1.5739,-1.5738,-1.5738,-1.5738,0,-1.5049,-1.5096,-1.5147,-1.5214,-1.5231,-1.5257,-1.5314,-1.5342,-1.5379,-1.5422,-1.5435,-1.5493,-1.5541,-1.5588,-1.5653,-1.5676,-1.572,-1.5731,-1.5702,-1.5707,-1.5716,-1.5714,-1.5737,-1.5743,-1.5747,-1.5747,-1.5747,0,-1.5053,-1.5079,-1.5149,-1.5175,-1.5206,-1.5248,-1.5278,-1.5327,-1.5357,-1.5419,-1.5439,-1.549,-1.5533,-1.5608,-1.5655,-1.5705,-1.5718,-1.5723,-1.5726,-1.5713,-1.5719,-1.5717,-1.572,-1.5721,-1.5721,-1.5721,-1.5721,0,-1.5054,-1.5076,-1.5118,-1.5169,-1.5205,-1.5247,-1.5291,-1.531,-1.5367,-1.54,-1.5449,-1.5482,-1.5548,-1.5598,-1.5653,-1.5687,-1.5713,-1.5719,-1.5725,-1.5713,-1.5695,-1.5705,-1.5698,-1.5718,-1.5719,-1.5719,-1.5719,-1.5719,-1.5048,-1.5073,-1.5126,-1.5173,-1.5211,-1.5251,-1.528,-1.5321,-1.5363,-1.542,-1.5446,-1.5496,-1.5548,-1.5625,-1.5658,-1.5697,-1.5704,-1.5712,-1.5714,-1.5715,-1.5712,-1.5688,-1.5708,-1.5708,-1.5708,-1.5708,-1.5708,0,-1.5051,-1.5087,-1.5129,-1.5189,-1.5226,-1.5248,-1.5297,-1.5326,-1.537,-1.5416,-1.5457,-1.5514,-1.5563,-1.5614,-1.5666,-1.5688,-1.5702,-1.57,-1.5699,-1.5707,-1.5703,-1.5694,-1.5688,-1.5688,-1.5688,-1.5688,-1.5688,-1.5688,-1.5057,-1.5102,-1.513,-1.5194,-1.523,-1.5279,-1.5306,-1.5343,-1.538,-1.5442,-1.5483,-1.5516,-1.5564,-1.562,-1.5666,-1.568,-1.5697,-1.5692,-1.5709,-1.5705,-1.5707,-1.5708,-1.5699,-1.5695,-1.5695,-1.571,-1.571,-1.571]}]]